STARLINK-11528, 62521

Orbit data source: Space-Track

STARLINK-11528, 62521 is a payload satellite owned by SpaceX/Seattle (US) in LEO that was launched on Wed, 08 Jan 2025 UTC via an FALCON 9 launch vehicle from the Air Force Eastern Test Range (AFETR). Payload-class satellites include a variety of spacecraft equipped with specific instruments for various scientific and technological missions. These include communications satellites like Starlink; space stations such as the ISS; scientific satellites like the Hubble; Earth observation satellites from companies like Planet Labs, Umbra, and HawkEye 360; GPS; miniature CubeSats for education and research; and military/defense satellites.

Loading next visibility...
Identifier
62521, 2025-004L
Orbit
LEO
Country
Flag of USUS
Related business
Manufacturer
SpaceX/Seattle
Mission
Operational Commercial Communications
Bus & Motor
STARLINK V2MD, Unknown motor
Mass
960 kg wet, ~910 kg dry
Launch date (UTC)
2025-01-08 (1 year ago)
Launch vehicle
FALCON 9
Launch site
Air Force Eastern Test Range (AFETR)
Object type
Payload
Rocket body
Debris
Shape & HBR
Box + 2 Pan, 18.1 m
Radar Cross Section
36.964 m², Large (>1 m²)

Expand to show TLE details & history
Last TLE update: 1 day ago

TLE from 1 day ago
0 STARLINK-11528
1 62521U 25004L   26037.01884298  .00261687  00000-0  19758-2 0  9997
2 62521  42.9989 261.9714 0001534 259.3944 100.6751 15.70882550 62221
Epoch: 2026-02-06T00:27Z
TLE epoch observation values (Epoch: 2026-02-06T00:27:08.033Z)
Latitude
-0.00001°
Longitude
119.02518°
Altitude
356.336 km
Speed
7.697 km/s
True Right ascension
17h 27m 53s
True Declination
0° 00' 00"
Sunlit
Object was in daylight at epoch
Visualization orbit readout
Latitude
Unknown
Longitude
Unknown
Altitude
Unknown
Speed
Unknown
Apparent Right ascension
Unknown
Apparent Declination
Unknown
Sunlit
N/A
Visualization observer readout
Local Sidereal Time
09:49:34
Azimuth
Unknown
Elevation
Unknown
Doppler factor
Unknown
Orbital elements
Apogee altitude
359.389 km
Perigee altitude
357.322 km
Semi-major axis
6,736.492 km
Eccentricity
0.00015
Inclination
42.9989°
RAAN
261.9714°
Arg. of periapsis
259.3944°
True anomaly
100.69237°
Mean anomaly
100.6751°
Eccentric anomaly
100.68374°
Mean motion
3.92548 °/min
Orbital period
91.71 mins
BSTAR
0.0019758
Loading maneuver chart data...
Computing Atmospheric mass density...
Loading historical data...
Loading historical data...
Loading historical data...
Loading historical data...
Loading historical data...
Loading historical data...
Loading historical data...

Documentation

Showing up to 5 results
|